Hourly Data Report for May 29, 2003

SHERBROOKE A
QUEBEC

45°26'00.000" N
71°41'00.000" W
241.40 m
7028124
71610
YSC

Download Data

Hourly Data (May 2003)
Hourly Data Report for May 29, 2003
TIME
LST
Temp Definition
°C
Dew Point Definition
°C
Rel Hum Definition
%
Precip. Amount Definition
mm

Wind Dir Definition
10's deg

Wind Spd Definition
km/h
Visibility Definition
km
Stn Press Definition
kPa
Hmdx Definition


Wind Chill Definition


Weather Definition


00:00 10.9 10.6 98   1 4 5.6 97.23      
01:00 10.7 10.4 98     0 4.8 97.17      
02:00 10.2 9.9 98   12 6 5.6 97.14      
03:00 10.0 9.8 99     0 1.9 97.10      
04:00 10.0 9.8 99     0 4.8 97.09     Rain
05:00 10.1 9.9 99   12 4 5.6 97.10     Rain
06:00 10.4 10.2 99   11 4 5.6 97.09     Rain
07:00 10.9 10.6 98     0 2.4 97.09     Rain, Fog
08:00 11.7 11.3 97   22 6 4.8 97.08     Rain, Fog
09:00 12.6 12.0 96   20 6 11.3 97.05     Rain Showers
10:00 13.5 12.5 94   21 6 16.1 97.02     Rain Showers
11:00 13.9 12.7 92   22 7 19.3 96.99     Rain Showers
12:00 15.5 13.0 85   23 11 24.1 96.96     Cloudy
13:00 16.2 12.6 79   23 7 24.1 96.91     Rain Showers
14:00 17.3 12.9 75   23 11 24.1 96.88     Mostly Cloudy
15:00 17.8 11.8 68   24 19 24.1 96.84     Mostly Cloudy
16:00 15.1 12.1 82   6 7 19.3 96.89     Mostly Cloudy
17:00 13.9 13.0 94   7 7 11.3 96.90     Rain
18:00 13.2 12.5 96   27 11 6.4 97.02     Moderate Rain
19:00 12.6 12.1 97   18 6 9.7 97.02     Rain
20:00 12.6 12.2 97   18 6 15.0 97.05      
21:00 12.7 12.3 97     0 11.3 97.08     Rain
22:00 13.0 12.6 97   21 6 15.0 97.06      
23:00 12.9 12.5 97   21 4 11.3 97.05     Rain

Notes on Data Quality.

Legend

  • E = Estimated
  • M = Missing
  • NA = Not Available*
  • [empty] = Indicates an unobserved value
Date modified: